Regional Weather Roundup
Issued by NWS

Home | Current Version | Previous Version | Text Only | Print | Product List | Glossary On
Versions: 1 2 3 4 5 6 7 8 9 10 11 12 13 14 15 16 17 18 19 20 21 22 23 24 25 26 27 28 29 30 31 32 33 34 35 36 37 38 39 40 41 42 43 44 45 46 47 48 49 50
000
ASUS43 KOAX 031302
RWRNE

WEATHER ROUNDUP FOR NEBRASKA
NATIONAL WEATHER SERVICE OMAHA NE
700 AM CST SAT DEC 03 2016

NOTES: SATELLITE DATA IS BEING USED TO AUGMENT CLOUD COVER ABOVE
       12000 FEET.
       "FAIR" INDICATES FEW OR NO CLOUDS BELOW 12,000 FEET WITH NO
       SIGNIFICANT WEATHER AND/OR OBSTRUCTIONS TO VISIBILITY.

  * THESE STATIONS DO NOT REPORT WEATHER SUCH AS RAIN...SNOW OR FOG.

NEZ001>004-019>022-054>056-031400-
NEBRASKA PANHANDLE

CITY           SKY/WX    TMP DP  RH WIND       PRES   REMARKS
SCOTTSBLUFF    CLEAR     17  13  84 E5        30.02F WCI  10
ALLIANCE       CLEAR     23  19  85 S10       30.01F WCI  12
CHADRON        CLEAR     24  16  71 SW13      29.98F WCI  12
KIMBALL        CLEAR     18  16  93 SW7       30.02S WCI   8
SIDNEY         CLEAR     22  18  85 S13       30.04F WCI  10
$$

NEZ057>060-069>072-079>082-031400-
SOUTHWEST NEBRASKA

CITY           SKY/WX    TMP DP  RH WIND       PRES   REMARKS
NORTH PLATTE   CLOUDY    31  25  78 S3        30.14F
IMPERIAL       CLOUDY    30  23  75 S8        30.12F WCI  22
LEXINGTON      CLOUDY    30  25  82 CALM      30.17F
MCCOOK         CLOUDY    27  22  81 CALM      30.16F
OGALLALA       CLOUDY    32  26  76 CALM      30.10F
$$

NEZ005>010-023>029-035>040-094-031400-
NORTH CENTRAL NEBRASKA

CITY           SKY/WX    TMP DP  RH WIND       PRES   REMARKS
VALENTINE      CLOUDY    32  26  78 SW6       30.08F WCI  26
AINSWORTH      CLOUDY    32  27  82 S10       30.10F WCI  24
BROKEN BOW     CLOUDY    31  27  85 S3        30.15F
O`NEILL        CLOUDY    28  26  92 S5        30.17S WCI  23
ORD            CLOUDY    27  22  81 CALM      30.18F
THEDFORD       CLOUDY    34  26  73 S7        30.11F WCI  28
$$

NEZ041-046>049-061>064-073>077-083>087-031400-
SOUTH CENTRAL NEBRASKA

CITY           SKY/WX    TMP DP  RH WIND       PRES   REMARKS
GRAND ISLAND   PTCLDY    28  26  92 S3        30.21F
AURORA         CLOUDY    27  25  95 CALM      30.21F
HASTINGS       MOCLDY    29  25  85 S6        30.22F WCI  23
HEBRON         CLOUDY    27  25  91 CALM      30.25F
HOLDREGE       PTCLDY    28  24  88 S3        30.18F
KEARNEY *      PTCLDY    27  19  74 CALM      30.19F
YORK           CLOUDY    27  27 100 CALM      30.23S
$$

NEZ011>018-030>034-042>045-031400-
NORTHEAST NEBRASKA

CITY           SKY/WX    TMP DP  RH WIND       PRES   REMARKS
NORFOLK        CLOUDY    21  19  92 E5        30.22F WCI  15
ALBION         CLOUDY    26  24  92 CALM      30.21F
BLAIR          PTCLDY    27  25  94 E5        30.26F WCI  21
FREMONT        PTCLDY    23  23 100 CALM      30.28S
TEKAMAH        PTCLDY    22  20  92 S6        30.29S WCI  14
WAYNE          CLEAR     20  18  93 S3        30.24S
$$

NEZ050>053-065>068-078-088>093-031400-
SOUTHEAST NEBRASKA

CITY           SKY/WX    TMP DP  RH WIND       PRES   REMARKS
LINCOLN        CLOUDY    24  21  88 CALM      30.28F
OMAHA EPPLEY   CLOUDY    24  19  81 CALM      30.30F FOG
BEATRICE       CLOUDY    27  25  93 CALM      30.26F
FALLS CITY       N/A    N/A N/A N/A MISG      30.29F
NEBRASKA CITY  PTCLDY    27  26  99 CALM      30.28F FOG
PLATTSMOUTH    PTCLDY    26  23  89 E3        30.27F FOG
$$

NEZ044-045-051>053-067-031400-
OMAHA AREA

CITY           SKY/WX    TMP DP  RH WIND       PRES   REMARKS
OMAHA EPPLEY   CLOUDY    24  19  81 CALM      30.30F FOG
BLAIR          PTCLDY    27  25  94 E5        30.26F WCI  21
FREMONT        PTCLDY    23  23 100 CALM      30.28S
MILLARD        PTCLDY    24  23  93 CALM      30.29F
OFFUTT AFB     CLOUDY    23  23 100 NE2       30.28F
PLATTSMOUTH    PTCLDY    26  23  89 E3        30.27F FOG
WAHOO          FAIR      21  20  94 CALM      30.27F
$$




USA.gov is the U.S. government's official web portal to all federal, state and local government web resources and services.